Silver Bay, MN

10:04 AM CDT on April 28, 2017 (GMT -0500)
Silver Bay Municipal

Weather History for KBFW - March, 2013

Change the Weather History Date:

Sunday, March 17, 2013

  Actual Average Record
Temperature  
Mean Temperature 5 °F -  
Max Temperature 32 °F 32 °F 71 °F (2012)
Min Temperature -22 °F 11 °F -22 °F (2013)
Degree Days  
Heating Degree Days 60    
Moisture  
Dew Point -6 °F    
Average Humidity 60    
Maximum Humidity 77    
Minimum Humidity 39    
Precipitation  
Precipitation 0.00 in - - ()
Sea Level Pressure  
Sea Level Pressure 30.13 in    
Wind  
Wind Speed 3 mph (East)    
Max Wind Speed 13 mph    
Max Gust Speed 18 mph    
Visibility 10 miles    
Events      
Averages and records for this station are not official NWS values.
T = Trace of Precipitation, MM = Missing Value Source: NWS Daily Summary

Daily Weather History Graph

Daily Weather History Graph

Search for Another Location

Airport or City:

Trip Planner

Search our weather history database for the weather conditions in past years. The results will help you decide how hot, cold, wet, or windy it might be!

Date:

Astronomy

Mar. 17, 2013 Rise Set
Actual Time 7:14 AM CDT 7:14 PM CDT
Civil Twilight 6:43 AM CDT 7:45 PM CDT
Nautical Twilight 6:07 AM CDT 8:20 PM CDT
Astronomical Twilight 5:31 AM CDT 8:57 PM CDT
Moon 10:04 AM CDT (3/17) 12:44 AM CDT (3/17)
Length of Visible Light 13h 01m
Length of Day
12h 00m
Waxing Crescent, 31% of the Moon is Illuminated
Mar 17
Waxing Crescent
Mar 19
First Quarter
Mar 27
Full
Apr 2
Last Quarter
Apr 10
New

Hourly Weather History & Observations

Time (CDT) Temp. Windchill Dew Point Humidity Pressure Visibility Wind Dir Wind Speed Gust Speed Precip Events Conditions
12:13 AM -5.8 °F - -13.0 °F 71% 30.19 in 10.0 mi Calm Calm - N/A   Clear
12:33 AM -7.6 °F - -18.4 °F 59% 30.20 in 10.0 mi Calm Calm - N/A   Clear
12:53 AM -9.4 °F - -18.4 °F 65% 30.21 in 10.0 mi Calm Calm - N/A   Clear
1:13 AM -9.4 °F - -18.4 °F 65% 30.21 in 10.0 mi Calm Calm - N/A   Clear
1:33 AM -11.2 °F - -18.4 °F 70% 30.21 in 10.0 mi Calm Calm - N/A   Clear
1:53 AM -7.6 °F -16.5 °F -14.8 °F 71% 30.21 in 10.0 mi NW 3.5 mph - N/A   Clear
2:13 AM -7.6 °F - -18.4 °F 59% 30.22 in 10.0 mi Calm Calm - N/A   Clear
2:33 AM -11.2 °F - -18.4 °F 70% 30.23 in 10.0 mi Calm Calm - N/A   Clear
2:53 AM -13.0 °F - -20.2 °F 70% 30.24 in 10.0 mi Calm Calm - N/A   Clear
3:13 AM -14.8 °F - -22.0 °F 70% 30.24 in 10.0 mi Calm Calm - N/A   Clear
3:33 AM -16.6 °F - -23.8 °F 70% 30.24 in 10.0 mi Calm Calm - N/A   Clear
3:53 AM -18.4 °F - -27.4 °F 63% 30.23 in 10.0 mi Calm Calm - N/A   Clear
4:13 AM -16.6 °F - -25.6 °F 64% 30.23 in 10.0 mi Calm Calm - N/A   Clear
4:33 AM -16.6 °F - -23.8 °F 70% 30.23 in 10.0 mi Calm Calm - N/A   Clear
4:53 AM -13.0 °F - -18.4 °F 77% 30.23 in 10.0 mi Calm Calm - N/A   Clear
5:13 AM -14.8 °F -27.2 °F -20.2 °F 77% 30.23 in 10.0 mi North 4.6 mph - N/A   Clear
5:33 AM -16.6 °F - -25.6 °F 64% 30.23 in 10.0 mi Calm Calm - N/A   Clear
5:53 AM -18.4 °F - -27.4 °F 63% 30.23 in 10.0 mi Calm Calm - N/A   Clear
6:13 AM -18.4 °F - -27.4 °F 63% 30.24 in 10.0 mi Calm Calm - N/A   Clear
6:53 AM -18.4 °F - -29.2 °F 58% 30.23 in 10.0 mi Calm Calm - N/A   Clear
7:13 AM -22.0 °F - -32.8 °F 57% 30.24 in 10.0 mi Calm Calm - N/A   Clear
7:33 AM -22.0 °F - -31.0 °F 63% 30.23 in 10.0 mi Calm Calm - N/A   Clear
7:53 AM -18.4 °F - -25.6 °F 70% 30.22 in 10.0 mi Calm Calm - N/A   Clear
8:13 AM -14.8 °F - -22.0 °F 70% 30.22 in 10.0 mi Calm Calm - N/A   Clear
8:33 AM -7.6 °F - -16.6 °F 65% 30.22 in 10.0 mi Calm Calm - N/A   Clear
8:53 AM -2.2 °F - -13.0 °F 60% 30.21 in 10.0 mi Calm Calm - N/A   Clear
9:13 AM 3.2 °F -4.2 °F -9.4 °F 56% 30.20 in 10.0 mi NE 3.5 mph - N/A   Clear
9:33 AM 8.6 °F - -9.4 °F 44% 30.20 in 10.0 mi Calm Calm - N/A   Clear
9:53 AM 32.0 °F 26.4 °F - N/A% - 10.0 mi NE 5.8 mph - N/A   Clear
10:13 AM 10.4 °F 4.0 °F -2.2 °F 57% 30.20 in 10.0 mi East 3.5 mph - N/A   Clear
10:33 AM 14.0 °F 8.2 °F -0.4 °F 53% 30.20 in 10.0 mi East 3.5 mph - N/A   Clear
10:53 AM 14.0 °F 8.2 °F -0.4 °F 53% 30.21 in 7.0 mi East 3.5 mph - N/A   Clear
11:13 AM 14.0 °F 5.1 °F -0.4 °F 53% 30.20 in 7.0 mi East 5.8 mph - N/A   Clear
11:34 AM 15.8 °F 8.6 °F 1.4 °F 53% 30.20 in 5.0 mi East 4.6 mph - N/A   Haze
11:53 AM 15.8 °F 6.1 °F 1.4 °F 53% 30.20 in 7.0 mi ESE 6.9 mph - N/A   Clear
12:13 PM 17.6 °F 8.2 °F 3.2 °F 53% 30.20 in 7.0 mi ESE 6.9 mph - N/A   Clear
12:33 PM 19.4 °F 12.8 °F 1.4 °F 46% 30.18 in 10.0 mi SSE 4.6 mph - N/A   Clear
12:53 PM 19.4 °F 10.4 °F 1.4 °F 46% 30.17 in 10.0 mi ESE 6.9 mph - N/A   Clear
1:13 PM 19.4 °F 14.3 °F 1.4 °F 46% 30.17 in 10.0 mi ESE 3.5 mph - N/A   Clear
1:34 PM 19.4 °F 14.3 °F -2.2 °F 39% 30.16 in 10.0 mi SSE 3.5 mph - N/A   Mostly Cloudy
1:53 PM 19.4 °F 9.5 °F -0.4 °F 42% 30.15 in 10.0 mi ESE 8.1 mph - N/A   Mostly Cloudy
2:13 PM 19.4 °F 9.5 °F 1.4 °F 46% 30.14 in 10.0 mi South 8.1 mph - N/A   Scattered Clouds
2:33 PM 19.4 °F 8.6 °F 1.4 °F 46% 30.13 in 10.0 mi East 9.2 mph - N/A   Clear
2:53 PM 21.2 °F 14.9 °F 3.2 °F 46% 30.11 in 10.0 mi East 4.6 mph - N/A   Clear
3:13 PM 19.4 °F 8.6 °F 3.2 °F 49% 30.10 in 10.0 mi ESE 9.2 mph 17.3 mph N/A   Scattered Clouds
3:33 PM 19.4 °F 10.4 °F 3.2 °F 49% 30.10 in 10.0 mi ESE 6.9 mph - N/A   Clear
3:53 PM 19.4 °F 11.5 °F 1.4 °F 46% 30.08 in 10.0 mi ENE 5.8 mph - N/A   Clear
4:13 PM 19.4 °F 10.4 °F 1.4 °F 46% 30.07 in 10.0 mi ENE 6.9 mph - N/A   Clear
4:33 PM 21.2 °F 13.6 °F 3.2 °F 46% 30.06 in 10.0 mi East 5.8 mph - N/A   Clear
4:54 PM 19.4 °F 10.4 °F 3.2 °F 49% 30.06 in 10.0 mi East 6.9 mph - N/A   Clear
5:13 PM 19.4 °F 8.6 °F 3.2 °F 49% 30.05 in 10.0 mi East 9.2 mph - N/A   Clear
5:33 PM 19.4 °F 7.2 °F 3.2 °F 49% 30.04 in 10.0 mi ENE 11.5 mph - N/A   Clear
5:53 PM 17.6 °F 6.4 °F 5.0 °F 58% 30.03 in 10.0 mi East 9.2 mph - N/A   Scattered Clouds
6:13 PM 17.6 °F 5.7 °F 6.8 °F 63% 30.03 in 10.0 mi ENE 10.4 mph - N/A   Mostly Cloudy
6:33 PM 15.8 °F 2.1 °F 6.8 °F 68% 30.02 in 10.0 mi East 12.7 mph 18.4 mph N/A   Mostly Cloudy
6:53 PM 15.8 °F 6.1 °F 6.8 °F 68% 30.02 in 10.0 mi East 6.9 mph - N/A   Overcast
7:13 PM 15.8 °F 6.1 °F 6.8 °F 68% 30.01 in 10.0 mi East 6.9 mph - N/A   Mostly Cloudy
7:33 PM 15.8 °F 6.1 °F 6.8 °F 68% 30.01 in 10.0 mi East 6.9 mph - N/A   Overcast
7:53 PM 15.8 °F 5.1 °F 6.8 °F 68% 30.00 in 10.0 mi East 8.1 mph - N/A   Overcast
8:13 PM 17.6 °F 7.3 °F 8.6 °F 68% 30.00 in 10.0 mi East 8.1 mph - N/A   Overcast
8:33 PM 17.6 °F 7.3 °F 10.4 °F 73% 29.99 in 10.0 mi East 8.1 mph - N/A   Overcast
8:53 PM 17.6 °F 6.4 °F 10.4 °F 73% 29.97 in 10.0 mi East 9.2 mph - N/A   Overcast
9:13 PM 17.6 °F 6.4 °F 10.4 °F 73% 29.97 in 10.0 mi East 9.2 mph - N/A   Scattered Clouds
9:33 PM 17.6 °F 5.0 °F 10.4 °F 73% 29.96 in 10.0 mi East 11.5 mph - N/A   Mostly Cloudy
9:53 PM 19.4 °F 9.5 °F 12.2 °F 74% 29.96 in 10.0 mi East 8.1 mph - N/A   Overcast
10:13 PM 19.4 °F 9.5 °F 12.2 °F 74% 29.94 in 10.0 mi East 8.1 mph - N/A   Overcast
10:34 PM 21.2 °F 10.9 °F 12.2 °F 68% 29.93 in 10.0 mi East 9.2 mph - N/A   Overcast
10:53 PM 21.2 °F 10.9 °F 12.2 °F 68% 29.93 in 10.0 mi ESE 9.2 mph - N/A   Overcast
11:13 PM 23.0 °F 14.7 °F 10.4 °F 59% 29.91 in 10.0 mi SE 6.9 mph - N/A   Overcast
11:33 PM 23.0 °F 15.8 °F 6.8 °F 50% 29.91 in 10.0 mi SSE 5.8 mph - N/A   Overcast
11:53 PM 23.0 °F 14.7 °F 6.8 °F 50% 29.90 in 10.0 mi SSE 6.9 mph - N/A   Overcast